Time,TemperatureF,DewpointF,PressureIn,WindDirection,WindDirectionDegrees,WindSpeedMPH,WindSpeedGustMPH,Humidity,HourlyPrecipIn,Conditions,Clouds,dailyrainin,SoftwareType,DateUTC
2013-06-16 06:00:00,63.3,61.2,29.90,South,180,0.0,3.0,93,0.00,,,0.02,VWS V14.01,2013-06-16 10:00:00,
2013-06-16 06:38:00,63.4,62.5,29.90,SW,229,0.0,1.0,97,0.14,,,0.16,VWS V14.01,2013-06-16 10:38:00,
2013-06-16 06:39:00,63.4,62.5,29.90,SW,229,0.0,1.0,97,0.15,,,0.17,VWS V14.01,2013-06-16 10:39:00,
2013-06-16 06:42:00,63.4,62.5,29.90,SW,229,0.0,1.0,97,0.15,,,0.17,VWS V14.01,2013-06-16 10:42:00,
2013-06-16 06:43:00,63.4,62.5,29.90,SW,229,1.0,1.0,97,0.15,,,0.17,VWS V14.01,2013-06-16 10:43:00,
2013-06-16 06:48:00,63.4,62.5,29.90,SW,229,0.0,1.0,97,0.17,,,0.19,VWS V14.01,2013-06-16 10:48:00,
2013-06-16 06:53:00,63.4,62.5,29.90,SW,229,0.0,1.0,97,0.19,,,0.21,VWS V14.01,2013-06-16 10:53:00,
2013-06-16 06:58:00,63.5,62.6,29.90,SW,229,0.0,2.0,97,0.20,,,0.22,VWS V14.01,2013-06-16 10:58:00,
2013-06-16 07:03:00,63.5,62.6,29.90,SW,229,0.0,2.0,97,0.21,,-RA,0.23,VWS V14.01,2013-06-16 11:03:00,
2013-06-16 07:08:00,63.6,62.7,29.90,SW,229,1.0,2.0,97,0.21,,-RA,0.23,VWS V14.01,2013-06-16 11:08:00,
2013-06-16 07:13:00,63.7,63.1,29.89,SSW,199,2.0,3.0,98,0.22,,-RA,0.24,VWS V14.01,2013-06-16 11:13:00,
2013-06-16 07:18:00,63.8,63.2,29.88,SSW,201,0.0,3.0,98,0.23,,-RA,0.25,VWS V14.01,2013-06-16 11:18:00,
2013-06-16 07:23:00,64.0,63.4,29.88,SSW,201,0.0,3.0,98,0.23,,-RA,0.25,VWS V14.01,2013-06-16 11:23:00,
2013-06-16 07:28:00,64.1,63.5,29.86,SSW,201,0.0,3.0,98,0.23,,-RA,0.25,VWS V14.01,2013-06-16 11:28:00,
2013-06-16 07:33:00,64.2,63.6,29.86,SSW,201,0.0,0.0,98,0.03,,-RA,0.25,VWS V14.01,2013-06-16 11:33:00,
2013-06-16 07:38:00,64.4,63.8,29.85,SSW,201,0.0,0.0,98,0.03,,-RA,0.25,VWS V14.01,2013-06-16 11:38:00,
2013-06-16 07:43:00,64.6,64.0,29.85,SSW,201,0.0,0.0,98,0.03,,-RA,0.25,VWS V14.01,2013-06-16 11:43:00,
2013-06-16 07:48:00,64.8,64.2,29.85,SSW,201,0.0,0.0,98,0.03,,-RA,0.25,VWS V14.01,2013-06-16 11:48:00,
2013-06-16 07:53:00,65.0,64.4,29.86,SSW,201,1.0,2.0,98,0.03,,-RA,0.25,VWS V14.01,2013-06-16 11:53:00,
2013-06-16 07:58:00,65.0,64.4,29.86,SSW,194,2.0,5.0,98,0.03,,-RA,0.25,VWS V14.01,2013-06-16 11:58:00,
2013-06-16 08:03:00,64.9,64.3,29.85,South,190,2.0,4.0,98,0.03,,-RA,0.25,VWS V14.01,2013-06-16 12:03:00,
2013-06-16 08:08:00,64.9,64.3,29.85,SSW,192,1.0,4.0,98,0.03,,-RA,0.25,VWS V14.01,2013-06-16 12:08:00,
2013-06-16 08:14:00,64.8,64.2,29.85,South,180,2.0,6.0,98,0.03,,-RA,0.25,VWS V14.01,2013-06-16 12:14:00,
2013-06-16 08:19:00,64.9,64.3,29.85,SSW,192,4.0,6.0,98,0.03,,-RA,0.25,VWS V14.01,2013-06-16 12:19:00,
2013-06-16 08:24:00,65.0,64.4,29.86,South,176,3.0,6.0,98,0.03,,-RA,0.25,VWS V14.01,2013-06-16 12:24:00,
2013-06-16 08:29:00,65.2,64.6,29.86,South,190,1.0,6.0,98,0.03,,-RA,0.25,VWS V14.01,2013-06-16 12:29:00,
2013-06-16 08:34:00,65.4,64.8,29.86,South,190,0.0,2.0,98,0.00,,-RA,0.25,VWS V14.01,2013-06-16 12:34:00,
2013-06-16 08:39:00,65.6,65.0,29.86,South,190,1.0,2.0,98,0.00,,-RA,0.25,VWS V14.01,2013-06-16 12:39:00,
2013-06-16 08:44:00,65.7,65.1,29.85,South,190,0.0,3.0,98,0.00,,-RA,0.25,VWS V14.01,2013-06-16 12:44:00,
2013-06-16 08:49:00,66.0,65.4,29.86,South,190,0.0,3.0,98,0.00,,-RA,0.25,VWS V14.01,2013-06-16 12:49:00,
2013-06-16 08:54:00,66.1,65.5,29.85,South,190,3.0,3.0,98,0.00,,-RA,0.25,VWS V14.01,2013-06-16 12:54:00,
2013-06-16 08:59:00,65.9,65.3,29.85,South,190,1.0,3.0,98,0.00,,-RA,0.25,VWS V14.01,2013-06-16 12:59:00,
2013-06-16 09:04:00,66.1,65.5,29.85,South,189,0.0,2.0,98,0.00,,BKN110,0.25,VWS V14.01,2013-06-16 13:04:00,
2013-06-16 09:09:00,66.2,65.3,29.85,South,190,2.0,3.0,97,0.00,,BKN110,0.25,VWS V14.01,2013-06-16 13:09:00,
2013-06-16 09:16:00,66.6,65.7,29.86,South,190,2.0,2.0,97,0.00,,,0.25,VWS V14.01,2013-06-16 13:16:00,
2013-06-16 09:22:00,66.5,65.3,29.86,SSW,194,1.0,4.0,96,0.00,,,0.25,VWS V14.01,2013-06-16 13:22:00,
2013-06-16 09:27:00,66.7,65.8,29.87,SSW,194,0.0,4.0,97,0.00,,,0.25,VWS V14.01,2013-06-16 13:27:00,
2013-06-16 09:32:00,66.7,65.5,29.87,SSW,205,1.0,2.0,96,0.00,,,0.25,VWS V14.01,2013-06-16 13:32:00,
2013-06-16 09:37:00,66.6,65.1,29.87,SW,229,1.0,4.0,95,0.00,,,0.25,VWS V14.01,2013-06-16 13:37:00,
2013-06-16 09:42:00,66.5,65.0,29.87,WSW,238,2.0,4.0,95,0.00,,,0.25,VWS V14.01,2013-06-16 13:42:00,
2013-06-16 09:47:00,66.7,65.2,29.87,WNW,289,1.0,4.0,95,0.00,,,0.25,VWS V14.01,2013-06-16 13:47:00,
2013-06-16 09:52:00,66.7,65.2,29.88,WNW,289,1.0,4.0,95,0.00,,,0.25,VWS V14.01,2013-06-16 13:52:00,
2013-06-16 09:57:00,66.8,65.3,29.88,WNW,289,1.0,4.0,95,0.00,,,0.25,VWS V14.01,2013-06-16 13:57:00,
2013-06-16 10:02:00,66.9,65.4,29.88,WNW,289,2.0,3.0,95,0.00,,OVC110,0.25,VWS V14.01,2013-06-16 14:02:00,
2013-06-16 10:07:00,67.1,65.3,29.88,SW,232,2.0,3.0,94,0.00,,OVC110,0.25,VWS V14.01,2013-06-16 14:07:00,
2013-06-16 10:12:00,67.2,65.4,29.89,WSW,250,2.0,3.0,94,0.00,,OVC110,0.25,VWS V14.01,2013-06-16 14:12:00,
2013-06-16 10:17:00,67.3,65.5,29.88,WSW,254,2.0,3.0,94,0.00,,OVC110,0.25,VWS V14.01,2013-06-16 14:17:00,
2013-06-16 10:22:00,67.5,65.7,29.88,SW,227,2.0,3.0,94,0.00,,OVC110,0.25,VWS V14.01,2013-06-16 14:22:00,
2013-06-16 10:27:00,67.5,65.7,29.88,WSW,255,2.0,3.0,94,0.00,,OVC110,0.25,VWS V14.01,2013-06-16 14:27:00,
2013-06-16 10:32:00,67.7,65.9,29.87,WSW,255,1.0,2.0,94,0.00,,OVC110,0.25,VWS V14.01,2013-06-16 14:32:00,
2013-06-16 10:37:00,67.7,65.9,29.88,WSW,242,1.0,3.0,94,0.00,,OVC110,0.25,VWS V14.01,2013-06-16 14:37:00,
2013-06-16 10:42:00,67.6,65.8,29.88,SW,232,1.0,3.0,94,0.00,,OVC110,0.25,VWS V14.01,2013-06-16 14:42:00,
2013-06-16 10:47:00,67.5,65.7,29.88,SW,232,0.0,3.0,94,0.00,,OVC110,0.25,VWS V14.01,2013-06-16 14:47:00,
2013-06-16 10:52:00,67.4,65.6,29.88,SW,218,1.0,6.0,94,0.00,,OVC110,0.25,VWS V14.01,2013-06-16 14:52:00,
2013-06-16 10:57:00,67.4,65.6,29.88,WNW,291,1.0,6.0,94,0.00,,OVC110,0.25,VWS V14.01,2013-06-16 14:57:00,
2013-06-16 11:02:00,67.4,65.6,29.88,WSW,240,3.0,3.0,94,0.01,,-RA,0.26,VWS V14.01,2013-06-16 15:02:00,
2013-06-16 11:07:00,67.3,65.5,29.88,West,274,3.0,4.0,94,0.02,,-RA,0.27,VWS V14.01,2013-06-16 15:07:00,
2013-06-16 11:12:00,67.2,65.4,29.88,West,264,3.0,4.0,94,0.02,,-RA,0.27,VWS V14.01,2013-06-16 15:12:00,
2013-06-16 11:17:00,67.1,65.6,29.88,WSW,255,2.0,4.0,95,0.02,,-RA,0.27,VWS V14.01,2013-06-16 15:17:00,
2013-06-16 11:23:00,67.2,65.7,29.88,West,271,2.0,4.0,95,0.02,,-RA,0.27,VWS V14.01,2013-06-16 15:23:00,
2013-06-16 11:28:00,67.4,65.9,29.88,WSW,244,1.0,4.0,95,0.02,,-RA,0.27,VWS V14.01,2013-06-16 15:28:00,
2013-06-16 11:33:00,67.6,66.1,29.88,WSW,257,2.0,3.0,95,0.02,,-RA,0.27,VWS V14.01,2013-06-16 15:33:00,
2013-06-16 11:38:00,67.8,66.0,29.88,SW,223,1.0,5.0,94,0.02,,-RA,0.27,VWS V14.01,2013-06-16 15:38:00,
2013-06-16 11:43:00,67.8,65.7,29.88,SSW,213,1.0,5.0,93,0.02,,-RA,0.27,VWS V14.01,2013-06-16 15:43:00,
2013-06-16 11:48:00,68.1,66.3,29.88,SW,228,1.0,6.0,94,0.02,,-RA,0.27,VWS V14.01,2013-06-16 15:48:00,
2013-06-16 11:53:00,68.6,66.8,29.88,West,281,3.0,6.0,94,0.02,,-RA,0.27,VWS V14.01,2013-06-16 15:53:00,
2013-06-16 11:58:00,69.0,67.2,29.88,SW,221,3.0,7.0,94,0.02,,-RA,0.27,VWS V14.01,2013-06-16 15:58:00,
2013-06-16 12:03:00,69.1,66.7,29.88,WSW,255,3.0,4.0,92,0.01,,-RA,0.27,VWS V14.01,2013-06-16 16:03:00,
2013-06-16 12:08:00,69.3,66.9,29.88,WSW,250,3.0,6.0,92,0.01,,-RA,0.27,VWS V14.01,2013-06-16 16:08:00,
2013-06-16 12:13:00,69.5,66.4,29.88,WNW,284,2.0,6.0,90,0.01,,-RA,0.27,VWS V14.01,2013-06-16 16:13:00,
2013-06-16 12:18:00,69.6,66.2,29.88,West,279,6.0,6.0,89,0.01,,-RA,0.27,VWS V14.01,2013-06-16 16:18:00,
2013-06-16 12:23:00,69.2,65.8,29.88,West,264,1.0,6.0,89,0.01,,-RA,0.27,VWS V14.01,2013-06-16 16:23:00,
2013-06-16 12:28:00,69.1,65.7,29.88,West,278,4.0,7.0,89,0.01,,-RA,0.27,VWS V14.01,2013-06-16 16:28:00,
2013-06-16 12:33:00,69.0,65.6,29.89,West,264,4.0,6.0,89,0.00,,-RA,0.27,VWS V14.01,2013-06-16 16:33:00,
2013-06-16 12:38:00,69.0,65.6,29.88,West,267,3.0,6.0,89,0.00,,-RA,0.27,VWS V14.01,2013-06-16 16:38:00,
2013-06-16 12:43:00,69.1,65.7,29.88,West,274,4.0,7.0,89,0.00,,-RA,0.27,VWS V14.01,2013-06-16 16:43:00,
2013-06-16 12:48:00,69.3,65.9,29.88,WSW,252,3.0,7.0,89,0.00,,-RA,0.27,VWS V14.01,2013-06-16 16:48:00,
2013-06-16 12:53:00,69.7,66.3,29.88,West,265,3.0,7.0,89,0.00,,-RA,0.27,VWS V14.01,2013-06-16 16:53:00,
2013-06-16 12:58:00,70.4,67.7,29.88,West,265,2.0,7.0,91,0.00,,-RA,0.27,VWS V14.01,2013-06-16 16:58:00,
2013-06-16 13:03:00,71.5,68.1,29.88,WNW,282,2.0,6.0,89,0.00,,BKN024,0.27,VWS V14.01,2013-06-16 17:03:00,
2013-06-16 13:08:00,72.6,68.5,29.88,WNW,288,3.0,7.0,87,0.00,,BKN024,0.27,VWS V14.01,2013-06-16 17:08:00,
2013-06-16 13:13:00,73.5,68.4,29.88,West,276,3.0,9.0,84,0.00,,BKN024,0.27,VWS V14.01,2013-06-16 17:13:00,
2013-06-16 13:19:00,73.5,68.0,29.88,West,267,3.0,9.0,83,0.00,,BKN024,0.27,VWS V14.01,2013-06-16 17:19:00,
2013-06-16 13:24:00,73.5,68.0,29.88,WNW,285,4.0,9.0,83,0.00,,BKN024,0.27,VWS V14.01,2013-06-16 17:24:00,
2013-06-16 13:29:00,73.2,68.1,29.88,West,265,2.0,9.0,84,0.00,,BKN024,0.27,VWS V14.01,2013-06-16 17:29:00,
2013-06-16 13:34:00,73.0,67.9,29.88,WSW,256,3.0,7.0,84,0.00,,BKN024,0.27,VWS V14.01,2013-06-16 17:34:00,
2013-06-16 13:39:00,73.5,68.0,29.88,WNW,282,5.0,8.0,83,0.00,,BKN024,0.27,VWS V14.01,2013-06-16 17:39:00,
2013-06-16 13:44:00,74.4,69.3,29.88,West,273,4.0,8.0,84,0.00,,BKN024,0.27,VWS V14.01,2013-06-16 17:44:00,
2013-06-16 13:49:00,74.8,68.9,29.88,West,275,4.0,8.0,82,0.00,,BKN024,0.27,VWS V14.01,2013-06-16 17:49:00,
2013-06-16 13:54:00,74.3,68.1,29.89,WNW,286,3.0,8.0,81,0.00,,BKN024,0.27,VWS V14.01,2013-06-16 17:54:00,
2013-06-16 13:59:00,73.9,68.1,29.88,West,260,3.0,8.0,82,0.00,,BKN024,0.27,VWS V14.01,2013-06-16 17:59:00,
2013-06-16 14:04:00,73.9,68.4,29.88,West,263,2.0,4.0,83,0.00,,OVC035,0.27,VWS V14.01,2013-06-16 18:04:00,
2013-06-16 14:09:00,74.3,68.1,29.89,West,278,3.0,4.0,81,0.00,,OVC035,0.27,VWS V14.01,2013-06-16 18:09:00,
2013-06-16 14:14:00,73.9,67.7,29.89,West,269,2.0,5.0,81,0.00,,OVC035,0.27,VWS V14.01,2013-06-16 18:14:00,
2013-06-16 14:19:00,73.9,68.4,29.88,WSW,242,3.0,6.0,83,0.00,,OVC035,0.27,VWS V14.01,2013-06-16 18:19:00,
2013-06-16 14:24:00,74.4,67.8,29.88,West,280,2.0,7.0,80,0.00,,OVC035,0.27,VWS V14.01,2013-06-16 18:24:00,
2013-06-16 14:29:00,74.6,68.0,29.88,WNW,282,3.0,7.0,80,0.00,,OVC035,0.27,VWS V14.01,2013-06-16 18:29:00,
2013-06-16 14:34:00,75.1,69.2,29.88,WNW,283,4.0,6.0,82,0.00,,OVC035,0.27,VWS V14.01,2013-06-16 18:34:00,
2013-06-16 14:39:00,75.7,69.5,29.88,SW,219,3.0,7.0,81,0.00,,OVC035,0.27,VWS V14.01,2013-06-16 18:39:00,
2013-06-16 14:44:00,76.1,69.1,29.88,West,280,4.0,7.0,79,0.00,,OVC035,0.27,VWS V14.01,2013-06-16 18:44:00,
2013-06-16 14:49:00,77.2,70.9,29.88,West,277,3.0,7.0,81,0.00,,OVC035,0.27,VWS V14.01,2013-06-16 18:49:00,
2013-06-16 14:54:00,77.3,69.5,29.88,West,271,3.0,7.0,77,0.00,,OVC035,0.27,VWS V14.01,2013-06-16 18:54:00,
2013-06-16 14:59:00,76.3,68.6,29.88,WSW,251,4.0,7.0,77,0.00,,OVC035,0.27,VWS V14.01,2013-06-16 18:59:00,
2013-06-16 15:04:00,76.2,69.2,29.88,SW,219,3.0,4.0,79,0.00,,OVC048,0.27,VWS V14.01,2013-06-16 19:04:00,
2013-06-16 15:09:00,76.5,68.8,29.88,WSW,250,3.0,5.0,77,0.00,,OVC048,0.27,VWS V14.01,2013-06-16 19:09:00,
2013-06-16 15:15:00,76.7,69.7,29.88,South,191,3.0,5.0,79,0.00,,OVC048,0.27,VWS V14.01,2013-06-16 19:15:00,
2013-06-16 15:20:00,76.5,69.1,29.88,WSW,252,4.0,5.0,78,0.00,,OVC048,0.27,VWS V14.01,2013-06-16 19:20:00,
2013-06-16 15:25:00,76.4,69.4,29.88,WSW,238,3.0,8.0,79,0.00,,OVC048,0.27,VWS V14.01,2013-06-16 19:25:00,
2013-06-16 15:30:00,77.3,70.3,29.87,West,277,2.0,8.0,79,0.00,,OVC048,0.27,VWS V14.01,2013-06-16 19:30:00,
2013-06-16 15:35:00,77.5,68.6,29.88,West,277,3.0,6.0,74,0.00,,OVC048,0.27,VWS V14.01,2013-06-16 19:35:00,
2013-06-16 15:40:00,77.3,70.3,29.87,SSW,210,4.0,6.0,79,0.00,,OVC048,0.27,VWS V14.01,2013-06-16 19:40:00,
2013-06-16 15:45:00,77.7,70.7,29.88,SW,226,2.0,7.0,79,0.00,,OVC048,0.27,VWS V14.01,2013-06-16 19:45:00,
2013-06-16 15:50:00,78.5,69.5,29.87,South,186,3.0,7.0,74,0.00,,OVC048,0.27,VWS V14.01,2013-06-16 19:50:00,
2013-06-16 15:55:00,78.4,68.6,29.87,WNW,282,8.0,8.0,72,0.00,,OVC048,0.27,VWS V14.01,2013-06-16 19:55:00,
2013-06-16 16:00:00,78.8,71.0,29.88,West,261,2.0,8.0,77,0.00,,OVC048,0.27,VWS V14.01,2013-06-16 20:00:00,
2013-06-16 16:05:00,78.7,69.3,29.88,WSW,247,3.0,5.0,73,0.00,,BKN047,0.27,VWS V14.01,2013-06-16 20:05:00,
2013-06-16 16:10:00,78.0,69.4,29.87,WSW,258,4.0,5.0,75,0.00,,BKN047,0.27,VWS V14.01,2013-06-16 20:10:00,
2013-06-16 16:15:00,77.8,68.9,29.87,SSW,213,2.0,7.0,74,0.00,,BKN047,0.27,VWS V14.01,2013-06-16 20:15:00,
2013-06-16 16:20:00,77.0,68.9,29.87,WSW,251,3.0,7.0,76,0.00,,BKN047,0.27,VWS V14.01,2013-06-16 20:20:00,
2013-06-16 16:25:00,76.4,69.0,29.87,West,266,1.0,7.0,78,0.00,,BKN047,0.27,VWS V14.01,2013-06-16 20:25:00,
2013-06-16 16:30:00,76.1,68.8,29.88,West,275,3.0,7.0,78,0.00,,BKN047,0.27,VWS V14.01,2013-06-16 20:30:00,
2013-06-16 16:35:00,77.1,70.1,29.87,West,281,4.0,5.0,79,0.00,,BKN047,0.27,VWS V14.01,2013-06-16 20:35:00,
2013-06-16 16:40:00,77.8,70.0,29.88,SW,215,2.0,7.0,77,0.00,,BKN047,0.27,VWS V14.01,2013-06-16 20:40:00,
2013-06-16 16:45:00,77.5,69.7,29.87,SW,221,4.0,7.0,77,0.00,,BKN047,0.27,VWS V14.01,2013-06-16 20:45:00,
2013-06-16 16:50:00,77.0,69.6,29.88,SW,228,1.0,7.0,78,0.00,,BKN047,0.27,VWS V14.01,2013-06-16 20:50:00,
2013-06-16 16:55:00,76.1,69.1,29.88,SSW,197,1.0,7.0,79,0.00,,BKN047,0.27,VWS V14.01,2013-06-16 20:55:00,
2013-06-16 17:00:00,75.5,69.3,29.88,SSW,199,1.0,8.0,81,0.00,,BKN047,0.27,VWS V14.01,2013-06-16 21:00:00,
2013-06-16 17:06:00,76.0,70.1,29.87,SW,226,1.0,3.0,82,0.00,,BKN047,0.27,VWS V14.01,2013-06-16 21:06:00,
2013-06-16 17:11:00,76.4,70.1,29.88,South,178,2.0,4.0,81,0.00,,BKN047,0.27,VWS V14.01,2013-06-16 21:11:00,
2013-06-16 17:16:00,77.2,69.8,29.87,South,191,2.0,5.0,78,0.00,,BKN047,0.27,VWS V14.01,2013-06-16 21:16:00,
2013-06-16 17:21:00,77.1,69.7,29.87,SSW,206,2.0,8.0,78,0.00,,BKN047,0.27,VWS V14.01,2013-06-16 21:21:00,
2013-06-16 17:26:00,76.6,69.6,29.87,South,188,1.0,8.0,79,0.00,,BKN047,0.27,VWS V14.01,2013-06-16 21:26:00,
2013-06-16 17:31:00,76.0,69.4,29.87,South,185,3.0,4.0,80,0.00,,BKN047,0.27,VWS V14.01,2013-06-16 21:31:00,
2013-06-16 17:36:00,75.8,69.2,29.87,WSW,253,2.0,4.0,80,0.00,,BKN047,0.27,VWS V14.01,2013-06-16 21:36:00,
2013-06-16 17:41:00,75.8,69.9,29.88,WSW,253,1.0,4.0,82,0.00,,BKN047,0.27,VWS V14.01,2013-06-16 21:41:00,
2013-06-16 17:47:00,75.8,69.9,29.87,SW,227,1.0,4.0,82,0.00,,BKN047,0.27,VWS V14.01,2013-06-16 21:47:00,
2013-06-16 17:52:00,75.8,69.2,29.87,SSW,212,1.0,4.0,80,0.00,,BKN047,0.27,VWS V14.01,2013-06-16 21:52:00,
2013-06-16 17:57:00,76.3,69.7,29.87,South,176,1.0,4.0,80,0.00,,BKN047,0.27,VWS V14.01,2013-06-16 21:57:00,
2013-06-16 18:02:00,76.9,69.9,29.87,SW,223,2.0,2.0,79,0.00,,BKN048,0.27,VWS V14.01,2013-06-16 22:02:00,
2013-06-16 18:08:00,76.4,69.4,29.87,SSW,202,0.0,6.0,79,0.00,,BKN048,0.27,VWS V14.01,2013-06-16 22:08:00,
2013-06-16 18:13:00,75.9,69.7,29.87,SSW,213,0.0,6.0,81,0.00,,BKN048,0.27,VWS V14.01,2013-06-16 22:13:00,
2013-06-16 18:18:00,75.5,69.3,29.87,SW,217,2.0,6.0,81,0.00,,BKN048,0.27,VWS V14.01,2013-06-16 22:18:00,
2013-06-16 18:23:00,74.8,69.7,29.87,WSW,254,5.0,6.0,84,0.01,,BKN048,0.28,VWS V14.01,2013-06-16 22:23:00,
2013-06-16 18:29:00,72.5,68.8,29.88,West,259,0.0,9.0,88,0.10,,BKN048,0.37,VWS V14.01,2013-06-16 22:29:00,
2013-06-16 18:34:00,71.3,68.2,29.87,SSW,201,2.0,2.0,90,0.10,,BKN048,0.37,VWS V14.01,2013-06-16 22:34:00,
2013-06-16 18:39:00,70.7,67.9,29.87,SW,223,2.0,5.0,91,0.10,,BKN048,0.37,VWS V14.01,2013-06-16 22:39:00,
2013-06-16 18:44:00,70.8,69.0,29.87,SSW,206,0.0,5.0,94,0.10,,BKN048,0.37,VWS V14.01,2013-06-16 22:44:00,
2013-06-16 18:50:00,71.0,69.2,29.87,South,186,2.0,5.0,94,0.10,,BKN048,0.37,VWS V14.01,2013-06-16 22:50:00,
2013-06-16 18:55:00,70.9,69.1,29.87,WSW,246,0.0,5.0,94,0.10,,BKN048,0.37,VWS V14.01,2013-06-16 22:55:00,
2013-06-16 19:00:00,70.7,68.6,29.87,SSW,211,1.0,7.0,93,0.10,,BKN048,0.37,VWS V14.01,2013-06-16 23:00:00,
2013-06-16 19:05:00,70.9,69.4,29.88,SW,233,2.0,3.0,95,0.10,,BKN048,0.37,VWS V14.01,2013-06-16 23:05:00,
2013-06-16 19:10:00,70.7,68.9,29.87,SSW,206,0.0,3.0,94,0.10,,BKN048,0.37,VWS V14.01,2013-06-16 23:10:00,
2013-06-16 19:15:00,70.4,68.3,29.87,South,184,0.0,4.0,93,0.10,,BKN048,0.37,VWS V14.01,2013-06-16 23:15:00,
2013-06-16 19:20:00,70.3,68.2,29.87,SSW,198,0.0,7.0,93,0.10,,BKN048,0.37,VWS V14.01,2013-06-16 23:20:00,
2013-06-16 19:25:00,70.4,68.9,29.88,South,178,2.0,7.0,95,0.10,,BKN048,0.37,VWS V14.01,2013-06-16 23:25:00,
2013-06-16 19:30:00,70.3,68.5,29.88,South,186,3.0,7.0,94,0.10,,BKN048,0.37,VWS V14.01,2013-06-16 23:30:00,
2013-06-16 19:35:00,70.0,67.6,29.88,SW,229,2.0,6.0,92,0.00,,BKN048,0.37,VWS V14.01,2013-06-16 23:35:00,
2013-06-16 19:40:00,69.8,66.7,29.88,SSE,168,2.0,7.0,90,0.00,,BKN048,0.37,VWS V14.01,2013-06-16 23:40:00,
2013-06-16 19:46:00,69.7,66.6,29.88,SSW,209,1.0,7.0,90,0.00,,BKN048,0.37,VWS V14.01,2013-06-16 23:46:00,
2013-06-16 19:51:00,69.6,66.9,29.87,South,189,1.0,7.0,91,0.00,,BKN048,0.37,VWS V14.01,2013-06-16 23:51:00,
2013-06-16 19:56:00,69.6,67.2,29.88,SW,218,0.0,7.0,92,0.00,,BKN048,0.37,VWS V14.01,2013-06-16 23:56:00,
2013-06-16 20:01:00,69.5,67.1,29.88,SSW,194,1.0,3.0,92,0.00,,BKN060,0.37,VWS V14.01,2013-06-17 00:01:00,
2013-06-16 20:06:00,69.6,67.2,29.88,SSW,213,2.0,7.0,92,0.00,,BKN060,0.37,VWS V14.01,2013-06-17 00:06:00,
2013-06-16 20:11:00,69.5,67.1,29.88,SSW,202,1.0,7.0,92,0.00,,BKN060,0.37,VWS V14.01,2013-06-17 00:11:00,
2013-06-16 20:16:00,69.4,66.7,29.88,South,188,2.0,7.0,91,0.00,,BKN060,0.37,VWS V14.01,2013-06-17 00:16:00,
2013-06-16 20:21:00,69.3,66.6,29.89,South,188,3.0,7.0,91,0.00,,BKN060,0.37,VWS V14.01,2013-06-17 00:21:00,
2013-06-16 20:26:00,69.2,66.5,29.89,SSW,195,4.0,7.0,91,0.00,,BKN060,0.37,VWS V14.01,2013-06-17 00:26:00,
2013-06-16 20:31:00,69.1,66.4,29.89,South,188,3.0,3.0,91,0.00,,BKN060,0.37,VWS V14.01,2013-06-17 00:31:00,
2013-06-16 20:36:00,69.1,66.4,29.89,SW,217,2.0,7.0,91,0.00,,BKN060,0.37,VWS V14.01,2013-06-17 00:36:00,
2013-06-16 20:41:00,69.1,66.4,29.89,SSW,206,0.0,8.0,91,0.00,,BKN060,0.37,VWS V14.01,2013-06-17 00:41:00,
2013-06-16 20:46:00,69.0,66.3,29.89,SW,232,1.0,8.0,91,0.00,,BKN060,0.37,VWS V14.01,2013-06-17 00:46:00,
2013-06-16 20:51:00,68.8,66.4,29.89,SSW,199,0.0,8.0,92,0.00,,BKN060,0.37,VWS V14.01,2013-06-17 00:51:00,
2013-06-16 20:56:00,68.5,66.1,29.89,SSW,199,0.0,8.0,92,0.00,,BKN060,0.37,VWS V14.01,2013-06-17 00:56:00,
2013-06-16 21:01:00,68.2,65.8,29.89,SSW,199,0.0,0.0,92,0.00,, +RA,0.37,VWS V14.01,2013-06-17 01:01:00,
2013-06-16 21:06:00,68.0,65.6,29.89,SSW,198,0.0,4.0,92,0.00,, +RA,0.37,VWS V14.01,2013-06-17 01:06:00,
2013-06-16 21:11:00,67.9,65.5,29.89,SSW,198,0.0,4.0,92,0.00,, +RA,0.37,VWS V14.01,2013-06-17 01:11:00,
2013-06-16 21:16:00,67.8,65.4,29.89,SSW,198,0.0,4.0,92,0.00,, +RA,0.37,VWS V14.01,2013-06-17 01:16:00,
2013-06-16 21:21:00,67.6,65.2,29.89,SSW,198,0.0,4.0,92,0.00,, +RA,0.37,VWS V14.01,2013-06-17 01:21:00,
2013-06-16 21:26:00,67.5,64.8,29.89,SSW,212,1.0,4.0,91,0.00,, +RA,0.37,VWS V14.01,2013-06-17 01:26:00,
2013-06-16 21:32:00,67.5,64.5,29.89,SSW,212,1.0,1.0,90,0.00,, +RA,0.37,VWS V14.01,2013-06-17 01:32:00,
2013-06-16 21:37:00,67.6,64.9,29.89,SSW,212,0.0,2.0,91,0.00,, +RA,0.37,VWS V14.01,2013-06-17 01:37:00,
2013-06-16 21:42:00,67.5,64.8,29.89,SSW,212,0.0,2.0,91,0.00,, +RA,0.37,VWS V14.01,2013-06-17 01:42:00,
2013-06-16 21:47:00,67.3,64.9,29.89,SSW,205,3.0,4.0,92,0.00,, +RA,0.37,VWS V14.01,2013-06-17 01:47:00,
2013-06-16 21:52:00,67.1,64.7,29.89,SSW,203,0.0,4.0,92,0.00,, +RA,0.37,VWS V14.01,2013-06-17 01:52:00,
2013-06-16 21:57:00,67.1,64.7,29.90,SSW,203,0.0,4.0,92,0.00,, +RA,0.37,VWS V14.01,2013-06-17 01:57:00,
2013-06-16 22:02:00,67.2,64.8,29.90,SSW,193,1.0,3.0,92,0.00,,-RA,0.37,VWS V14.01,2013-06-17 02:02:00,
2013-06-16 22:07:00,67.1,64.7,29.90,SSW,192,1.0,3.0,92,0.00,,-RA,0.37,VWS V14.01,2013-06-17 02:07:00,
2013-06-16 22:12:00,67.0,64.9,29.90,SSW,192,0.0,3.0,93,0.00,,-RA,0.37,VWS V14.01,2013-06-17 02:12:00,
2013-06-16 22:17:00,66.9,64.8,29.90,SSW,192,0.0,3.0,93,0.00,,-RA,0.37,VWS V14.01,2013-06-17 02:17:00,
2013-06-16 22:22:00,66.8,64.7,29.90,SSW,192,0.0,3.0,93,0.00,,-RA,0.37,VWS V14.01,2013-06-17 02:22:00,
2013-06-16 22:27:00,66.7,64.9,29.90,SSW,192,0.0,3.0,94,0.00,,-RA,0.37,VWS V14.01,2013-06-17 02:27:00,
2013-06-16 22:32:00,66.7,64.9,29.91,SSW,192,0.0,1.0,94,0.00,,-RA,0.37,VWS V14.01,2013-06-17 02:32:00,
2013-06-16 22:37:00,66.6,64.8,29.90,SSW,192,0.0,1.0,94,0.00,,-RA,0.37,VWS V14.01,2013-06-17 02:37:00,
2013-06-16 22:42:00,66.6,65.1,29.91,SSW,192,0.0,2.0,95,0.00,,-RA,0.37,VWS V14.01,2013-06-17 02:42:00,
2013-06-16 22:47:00,66.6,65.1,29.90,SSW,192,0.0,2.0,95,0.00,,-RA,0.37,VWS V14.01,2013-06-17 02:47:00,
2013-06-16 22:52:00,66.5,65.0,29.91,SSW,192,0.0,2.0,95,0.00,,-RA,0.37,VWS V14.01,2013-06-17 02:52:00,
2013-06-16 22:58:00,66.5,65.3,29.90,SSW,192,0.0,2.0,96,0.00,,-RA,0.37,VWS V14.01,2013-06-17 02:58:00,
2013-06-16 23:03:00,66.5,65.3,29.90,SSW,192,0.0,0.0,96,0.00,,FEW028,0.37,VWS V14.01,2013-06-17 03:03:00,
2013-06-16 23:08:00,66.6,65.4,29.90,SSW,192,0.0,1.0,96,0.00,,FEW028,0.37,VWS V14.01,2013-06-17 03:08:00,
2013-06-16 23:13:00,66.6,65.4,29.90,SSW,192,0.0,1.0,96,0.00,,FEW028,0.37,VWS V14.01,2013-06-17 03:13:00,
2013-06-16 23:18:00,66.6,65.4,29.90,SSW,192,0.0,1.0,96,0.00,,FEW028,0.37,VWS V14.01,2013-06-17 03:18:00,
2013-06-16 23:23:00,66.5,65.3,29.90,SSW,192,0.0,1.0,96,0.00,,FEW028,0.37,VWS V14.01,2013-06-17 03:23:00,
2013-06-16 23:28:00,66.4,65.2,29.90,SSW,192,0.0,1.0,96,0.00,,FEW028,0.37,VWS V14.01,2013-06-17 03:28:00,
2013-06-16 23:33:00,66.3,65.1,29.90,SSW,192,0.0,0.0,96,0.00,,FEW028,0.37,VWS V14.01,2013-06-17 03:33:00,
2013-06-16 23:38:00,66.3,65.1,29.91,SSW,192,0.0,1.0,96,0.00,,FEW028,0.37,VWS V14.01,2013-06-17 03:38:00,
2013-06-16 23:43:00,66.1,64.9,29.91,SSW,192,0.0,1.0,96,0.00,,FEW028,0.37,VWS V14.01,2013-06-17 03:43:00,
2013-06-16 23:48:00,66.0,64.8,29.91,SSW,192,0.0,1.0,96,0.00,,FEW028,0.37,VWS V14.01,2013-06-17 03:48:00,
2013-06-16 23:53:00,65.8,64.6,29.91,SSW,193,0.0,1.0,96,0.00,,FEW028,0.37,VWS V14.01,2013-06-17 03:53:00,
2013-06-16 23:58:00,65.6,64.4,29.90,SSW,192,0.0,1.0,96,0.00,,FEW028,0.37,VWS V14.01,2013-06-17 03:58:00,